Location: Rowland
(34.5359°N, 79.2929°W)
Time: 15:01:07
(UTC+00:00)

Transit 4A - Pass Details

Date: 07 October 2022
Orbit: 871 x 972 km, 66.8° (Epoch: 29 November)

Event Time Altitude Azimuth Distance (km) Brightness Sun altitude
Rises 09:35:19 0° 353° (N) 3,484 10.9 -21.6°
Reaches altitude 10° 09:40:39 10° 34° (NNE) 2,526 10.7 -20.5°
Maximum altitude 09:41:36 10° 43° (NE) 2,497 10.8 -20.3°
Drops below altitude 10° 09:42:34 10° 53° (NE) 2,522 11.0 -20.1°
Sets 09:47:49 0° 93° (E) 3,455 12.5 -19.0°
